Location: Agadir Irigdalene
(31.2522°N, 8.7797°W)
Time: 06:00:53
(UTC+00:00)

CZ-4 R/B - Pass Details

Date: 01 December 2020
Orbit: 532 x 598 km, 97.7° (Epoch: 25 January)

Event Time Altitude Azimuth Distance (km) Brightness Sun altitude
Rises 19:06:13 0° 160° (SSE) 2,691 4.8 -19.7°
Reaches altitude 10° 19:08:19 10° 157° (SSE) 1,811 3.9 -20.2°
Enters shadow 19:10:51 38° 140° (SE) 858 2.0 -20.7°
Exits shadow 19:16:50 - 355° (N) 2,140 4.2 -21.9°
Sets 19:18:20 0° 353° (N) 2,772 4.8 -22.3°
